Orbital Elements at Epoch 2459000.5 (2020-May-31.0) TDB
Reference: JPL 25 (heliocentric ecliptic J2000)
Element | Value | Uncertainty (1-sigma) | Units |
e | .1002868014965253 | 4.1512e-08 | |
a | 2.661393571454646 | 1.4142e-08 | au |
q | 2.394490922650045 | 1.164e-07 | au |
i | 14.06795017664302 | 4.1467e-06 | deg |
node | 124.8333972597849 | 1.7273e-05 | deg |
peri | 351.6591337687171 | 2.7679e-05 | deg |
M | 266.1211924513271 | 2.288e-05 | deg |
tp | 2459414.049162752917 (2021-Jul-18.54916275) | 0.00010152 | TDB |
period | 1585.849910948882 4.34 | 1.264e-05 3.461e-08 | d yr |
n | .2270076111960662 | 1.8094e-09 | deg/d |
Q | 2.928296220259246 | 1.556e-08 | au |
|
| | Orbit Determination Parameters
Additional Information
|